Location: Ferris
(32.5340°N, 96.6656°W)
Time: 09:50:59
(UTC+00:00)

IGS 5A - Pass Details

Date: 11 February 2026
Orbit: 551 x 554 km, 97.4° (Epoch: 8 January)

Event Time Altitude Azimuth Distance (km) Brightness Sun altitude
Rises 12:22:54 0° 5° (N) 2,731 6.8 -11.2°
Reaches altitude 10° 12:25:04 10° 1° (N) 1,833 5.9 -10.7°
Maximum altitude 12:28:55 53° 284° (WNW) 680 3.4 -9.9°
Drops below altitude 10° 12:32:46 10° 207° (SSW) 1,822 5.8 -9.1°
Sets 12:34:55 0° 203° (SSW) 2,712 6.7 -8.7°
